This is the latest recevied weather packets stored in our database for station/object DL9GRB-13. If no packets are shown the sender has not sent any weather packets the latest 10 day(s).
| Time | Temp. | Humidity | Pressure | Rain* | Wind** | Luminosity | Snow |
|---|---|---|---|---|---|---|---|
| 1777444506 | 11.67° C | 60% | 1029 hPa | 0 mm | - | 202 W/m² | - |
| 1777444326 | 11.67° C | 62% | 1029.2 hPa | 0 mm | - | 187 W/m² | - |
| 1777444146 | 11.67° C | 63% | 1029.1 hPa | 0 mm | - | 189 W/m² | - |
| 1777443966 | 11.67° C | 64% | 1029.1 hPa | 0 mm | - | 166 W/m² | - |
| 1777443786 | 11.67° C | 63% | 1029.1 hPa | 0 mm | - | 148 W/m² | - |
| 1777443606 | 11.67° C | 64% | 1028.9 hPa | 0 mm | - | 132 W/m² | - |
| 1777443426 | 11.67° C | 63% | 1029.1 hPa | 0 mm | - | 125 W/m² | - |
| 1777443246 | 11.67° C | 61% | 1028.8 hPa | 0 mm | - | 117 W/m² | - |
| 1777443066 | 11.67° C | 62% | 1029 hPa | 0 mm | - | 111 W/m² | - |
| 1777442886 | 11.67° C | 61% | 1029 hPa | 0 mm | - | 107 W/m² | - |
| 1777442706 | 11.67° C | 61% | 1028.9 hPa | 0 mm | - | 102 W/m² | - |
| 1777442526 | 11.67° C | 60% | 1029 hPa | 0 mm | - | 98 W/m² | - |
| 1777442346 | 11.11° C | 62% | 1028.8 hPa | 0 mm | - | 94 W/m² | - |
| 1777442166 | 10.56° C | 62% | 1028.9 hPa | 0 mm | - | 91 W/m² | - |
| 1777441986 | 10° C | 62% | 1028.7 hPa | 0 mm | - | 88 W/m² | - |
| 1777441806 | 10° C | 64% | 1028.9 hPa | 0 mm | - | 85 W/m² | - |
| 1777441626 | 9.44° C | 64% | 1028.8 hPa | 0 mm | - | 82 W/m² | - |
| 1777441446 | 9.44° C | 65% | 1029 hPa | 0 mm | - | 80 W/m² | - |
| 1777441266 | 8.33° C | 66% | 1028.8 hPa | 0 mm | - | 78 W/m² | - |
| 1777441086 | 7.78° C | 70% | 1028.9 hPa | 0 mm | - | 77 W/m² | - |
| 1777440906 | 7.22° C | 71% | 1028.7 hPa | 0 mm | - | 77 W/m² | - |
| 1777440726 | 7.22° C | 70% | 1028.8 hPa | 0 mm | - | 78 W/m² | - |
| 1777440546 | 6.67° C | 71% | 1028.7 hPa | 0 mm | - | 79 W/m² | - |
| 1777440366 | 6.11° C | 72% | 1028.7 hPa | 0 mm | - | 79 W/m² | - |
| 1777440186 | 6.11° C | 74% | 1028.6 hPa | 0 mm | - | 78 W/m² | - |
* Rain latest hour (hover to see other rain measurements)
** Current wind speed in m/s (hover to see current wind gust speed)